Wind_Speed
6 9 8 7 3 3 5 5 4 2 3 3 8 8 9 10 14 15 13 12 12 13 12 12 11 10 11 11 9 7 5 3 2 2 2 2 2 3 5 5 5 5 6 7
4 10 7 4 7 7 4 4 3 1 3 1 4 8 8 11 11 11 11 11 11 11 12 13 11 10 11 10 8 6 4 2 3 3 2 1 2 3 3 5 6 6 6 6
11 4 5 10 10 7 5 3 1 2 2 5 8 5 4 5 6 8 11 10 11 11 12 12 13 11 9 7 4 1 4 5 6 6 4 6 9 9 7 9 11 12 9 7
7 3 9 11 7 2 2 2 3 5 3 6 2 4 4 4 4 7 8 9 10 11 10 13 15 17 16 12 11 9 8 9 7 8 9 10 12 14 13 14 12 13 14 12
4 7 7 10 3 2 2 3 2 3 6 2 2 4 6 6 3 3 5 7 9 10 11 12 16 16 16 17 17 16 16 15 15 17 14 15 16 19 20 19 19 18 19 17
5 2 4 3 2 4 3 1 2 2 1 4 4 3 6 5 3 2 2 6 8 9 9 10 11 12 14 15 15 16 17 17 14 13 13 13 15 19 20 21 24 21 19 17
3 3 1 3 1 3 7 4 2 2 2 3 3 6 3 3 2 2 1 3 5 6 7 8 11 13 15 16 17 18 18 19 17 16 16 17 20 22 20 21 22 23 21 20
0 3 6 6 4 2 4 3 1 4 3 7 5 5 2 4 4 3 2 2 3 6 8 9 13 14 18 21 21 23 22 20 18 15 15 18 21 23 22 21 21 23 22 21
1 3 2 8 4 3 2 2 2 0 1 4 1 1 5 6 3 4 4 4 8 11 12 13 17 18 20 21 21 24 23 24 23 22 21 24 25 27 28 23 21 22 21 20
2 1 1 2 1 9 4 5 0 2 3 6 3 4 7 8 4 2 4 7 9 12 14 14 20 20 21 21 22 24 25 27 26 24 25 28 31 32 32 28 27 27 24 18
2 0 3 2 2 2 3 2 3 1 2 3 6 3 1 4 3 5 10 9 14 16 17 16 22 21 23 25 28 28 29 28 26 25 28 30 33 35 30 31 33 32 31 26
2 2 0 1 3 3 1 2 2 1 1 4 5 8 1 4 3 5 8 12 16 16 18 21 24 25 28 29 31 31 32 29 27 28 32 33 33 31 31 31 30 28 27 25
5 1 0 2 3 3 4 3 3 2 1 7 7 5 3 3 5 8 11 15 16 18 19 18 23 25 29 31 31 32 29 28 34 33 31 32 27 31 33 31 29 24 25 23
4 3 4 4 4 1 4 6 8 5 4 11 13 21 16 12 15 13 16 18 19 20 20 20 21 28 32 32 32 31 31 27 29 28 28 28 28 28 28 29 28 26 26 24
1 3 4 7 8 6 8 10 9 11 14 9 16 15 16 15 12 14 15 18 22 24 23 22 22 28 34 33 32 29 28 28 27 28 28 29 29 29 28 29 27 26 24 23
1 2 1 4 4 6 10 11 11 13 11 10 11 16 8 12 13 17 18 21 23 24 24 25 26 33 32 32 31 27 29 28 28 28 28 29 29 26 27 26 25 23 23 23
3 4 2 3 3 7 11 6 5 3 4 6 9 16 14 12 18 18 18 21 23 24 25 27 26 29 31 32 29 28 29 29 29 28 29 29 27 26 26 26 24 25 25 23
5 5 2 3 2 4 4 3 1 4 8 11 14 10 12 16 16 16 18 19 21 24 26 25 30 29 30 30 31 30 28 28 28 28 28 27 26 24 24 24 23 24 23 22
2 4 2 3 3 8 3 4 3 3 10 11 4 11 15 16 15 17 18 19 21 23 31 32 33 31 32 32 31 30 29 29 28 28 26 25 23 22 22 22 21 21 21 20
5 2 3 3 3 4 2 6 2 3 5 6 8 13 16 14 11 17 22 21 24 31 31 29 32 31 30 31 31 30 29 27 27 26 24 24 22 22 22 21 21 20 18 19
4 2 7 4 5 6 4 6 6 3 6 7 10 13 14 12 12 20 21 25 31 32 29 31 29 27 28 30 29 27 28 27 29 27 25 24 21 19 20 21 21 18 17 16
5 5 3 3 4 4 8 5 4 5 3 7 11 13 13 15 18 20 21 22 30 32 32 30 28 29 31 30 28 26 26 30 29 26 22 17 15 15 17 20 20 18 18 19
4 4 3 7 3 1 9 8 5 3 9 10 9 12 13 15 18 19 20 22 28 27 27 29 28 28 29 30 27 24 29 29 28 20 13 13 13 16 14 19 19 18 16 15
4 4 3 2 3 7 7 8 11 8 10 10 11 11 12 15 16 19 19 19 23 26 27 28 27 26 28 30 30 28 28 27 18 11 11 11 12 15 11 12 7 8 6 8
1 8 5 5 9 8 5 7 7 6 7 9 9 11 11 12 16 16 19 21 23 25 27 28 25 25 27 29 29 29 27 23 13 9 9 12 12 9 6 8 14 8 7 4
6 6 5 4 5 4 5 3 4 7 9 9 9 12 13 12 15 22 19 24 23 24 28 27 26 26 28 27 27 27 24 17 8 6 7 11 8 8 7 6 10 13 11 8
Wind_Direction
26 62 40 0 27 95 111 108 115 154 56 98 93 89 46 34 46 47 47 31 24 26 23 44 68 84 102 116 128 129 124 102 67 31 6 23 30 61 41 23 17 27 27 31
85 41 355 79 95 78 96 109 57 250 27 153 159 96 62 47 47 43 42 41 30 26 26 35 51 83 101 109 108 111 113 81 62 93 95 123 309 269 274 298 296 305 318 329
86 49 65 77 65 80 61 90 160 279 4 86 149 156 124 68 58 55 51 53 48 36 24 16 20 25 26 38 47 125 173 193 210 205 212 243 273 275 276 278 279 277 278 277
73 28 63 67 65 339 235 343 290 279 250 282 232 289 169 124 82 55 40 40 37 31 33 30 24 19 19 17 2 347 336 335 338 312 321 322 311 302 295 297 281 273 262 252
94 60 58 57 46 315 53 342 324 302 244 273 163 248 138 192 146 73 33 34 33 30 20 18 16 13 11 7 4 357 344 334 329 328 327 321 312 305 301 297 289 285 269 256
106 85 33 356 95 44 309 210 80 87 189 238 129 324 177 188 179 156 38 27 18 14 14 14 20 15 7 1 355 349 346 340 334 331 340 334 326 313 301 292 285 281 276 256
110 57 5 9 42 47 21 352 332 207 226 308 141 281 4 148 86 29 40 37 27 23 13 2 358 357 347 338 330 319 314 310 305 311 321 328 327 320 310 307 301 295 282 268
220 197 6 356 28 348 39 4 309 293 285 308 279 256 117 111 82 73 89 40 18 357 349 335 327 322 327 322 314 316 302 295 285 289 299 310 317 316 306 301 300 295 285 271
175 132 79 61 40 343 87 74 16 245 236 263 241 194 199 176 91 52 21 335 343 344 327 318 318 316 314 316 311 312 301 297 286 283 297 307 311 313 304 292 295 296 291 278
128 190 57 86 264 56 67 122 206 36 306 295 239 268 286 202 234 265 297 318 327 323 321 319 318 317 316 315 311 310 302 297 291 283 296 302 305 304 297 286 288 287 285 273
102 85 132 219 48 119 144 125 77 359 256 278 304 300 148 267 195 337 332 323 322 324 322 320 318 313 311 309 309 308 304 300 295 292 298 301 301 298 290 287 288 284 278 265
61 121 100 34 316 292 248 149 121 167 232 245 282 289 32 170 152 329 309 319 322 318 317 314 314 314 315 312 310 307 305 299 297 298 299 299 298 293 290 290 288 284 273 261
172 55 7 169 158 177 239 192 147 121 204 245 275 272 177 194 273 314 318 323 317 317 313 310 310 310 312 311 309 309 304 300 301 299 299 299 296 296 294 289 284 280 283 269
112 146 219 249 295 128 224 223 211 239 251 285 266 289 299 310 326 326 328 325 321 321 320 315 311 312 312 312 309 308 306 305 301 297 296 294 293 295 294 293 286 280 281 274
148 237 204 253 253 230 257 260 263 250 273 270 294 296 305 321 317 319 319 316 322 321 321 320 315 312 314 313 310 308 304 301 300 296 293 289 287 286 283 286 282 281 275 272
36 204 217 269 275 243 260 267 273 278 279 264 283 295 345 315 308 321 322 319 321 319 319 317 315 315 314 312 309 307 304 300 298 292 288 288 287 280 283 287 278 274 277 275
173 162 188 261 351 316 276 273 210 265 244 283 288 313 319 311 316 322 314 316 317 318 318 317 317 315 314 310 307 303 302 300 296 290 288 287 285 281 281 282 279 278 274 271
147 151 191 290 303 252 78 94 149 252 284 279 297 306 310 313 314 311 308 313 314 318 317 316 317 315 309 306 304 302 301 297 293 290 287 287 286 283 281 281 275 276 274 270
198 157 178 261 239 300 178 192 194 190 282 301 245 302 310 313 313 302 325 324 317 316 315 315 314 312 310 308 308 306 302 299 294 290 289 288 287 285 283 282 280 273 271 264
120 79 227 167 264 268 114 174 141 140 274 201 262 296 308 321 309 316 326 324 318 319 318 314 309 307 304 304 306 302 299 297 292 292 291 291 288 283 284 284 284 281 270 265
167 174 225 218 246 274 187 151 154 283 307 308 291 290 304 303 305 309 316 320 320 321 319 315 311 305 306 308 308 301 302 296 296 296 293 290 285 285 283 287 287 281 275 272
192 175 193 172 229 266 158 136 203 276 268 286 294 301 302 300 307 312 320 319 322 323 321 319 315 312 313 313 310 302 299 299 299 296 291 288 291 287 291 292 291 284 274 268
212 214 189 203 239 129 191 239 254 247 281 292 293 308 305 302 308 320 320 321 325 320 318 318 315 313 316 315 310 302 302 305 307 302 292 295 298 301 303 300 294 286 276 262
211 175 225 196 201 240 243 253 261 264 256 287 293 290 298 304 315 318 321 324 324 320 318 319 318 318 318 319 319 315 313 318 311 317 312 313 310 320 333 350 336 341 301 280
203 161 200 246 274 273 256 243 272 269 270 286 299 296 301 317 317 322 322 326 321 319 319 320 317 320 319 323 323 325 325 323 325 324 324 331 337 352 357 14 23 24 26 16
186 188 188 229 214 225 269 269 262 281 301 305 302 304 315 323 320 325 325 323 318 320 320 319 323 323 325 328 329 335 347 355 351 337 339 352 358 5 27 35 42 50 45 54
Height
812 816 831 830 827 825 827 831 835 833 831 835 847 849 849 846 841 841 840 837 833 830 829 827 825 825 824 824 827 828 831 832 833 834 835 836 835 833 831 831 831 829 829 826
818 831 830 826 826 827 829 834 838 834 831 832 848 851 850 849 849 848 846 842 839 835 832 832 830 828 827 829 831 832 833 834 835 836 836 835 834 833 831 830 830 828 826 825
827 836 827 826 831 832 837 837 839 839 835 838 844 851 851 851 848 847 847 846 843 842 839 837 836 836 835 835 834 834 833 832 832 832 832 832 830 829 828 828 829 827 824 822
832 833 831 830 837 836 841 836 837 838 841 842 845 844 855 852 850 848 848 846 845 844 842 840 838 836 837 837 837 835 834 834 834 833 832 832 832 830 828 827 826 823 820 819
842 838 836 837 841 837 840 839 842 843 841 846 846 846 851 852 852 851 849 848 848 848 848 845 843 841 838 837 835 833 832 832 832 831 832 831 829 828 825 823 820 818 815 814
835 832 835 837 839 840 840 841 846 850 847 849 850 849 846 848 850 851 850 850 850 849 849 848 847 845 843 841 839 837 834 833 830 830 829 829 826 825 822 819 816 810 808 806
840 842 837 838 839 838 838 844 851 853 851 850 852 851 845 851 850 851 852 853 853 852 850 848 846 845 843 842 841 839 836 833 830 827 825 823 822 820 816 813 808 803 800 799
847 853 847 842 847 850 854 853 857 869 864 852 848 850 847 852 854 854 854 854 854 852 850 849 847 845 842 840 838 835 832 829 827 824 821 819 817 814 811 807 803 799 795 794
849 856 849 849 848 849 854 861 865 867 876 871 849 854 851 852 852 852 854 854 852 851 851 848 845 843 841 837 834 830 826 823 821 818 814 811 808 806 803 800 798 794 790 788
851 858 854 852 850 851 851 860 865 867 875 866 849 852 842 853 851 855 854 853 853 850 847 843 841 838 835 832 829 825 821 817 813 810 807 803 800 798 795 792 790 789 786 783
850 857 859 856 856 858 859 863 869 871 871 873 864 847 843 846 851 852 851 852 850 846 842 839 836 834 831 827 823 819 815 811 807 804 801 797 793 790 786 783 781 780 778 778
857 859 861 862 858 860 860 861 864 873 873 869 872 857 845 846 850 854 853 850 847 844 840 836 832 827 824 820 816 812 808 804 801 799 795 791 787 783 779 775 772 770 768 768
853 864 870 864 862 859 860 859 862 870 876 871 873 854 848 851 852 852 851 848 844 840 835 831 826 821 817 812 809 805 801 798 795 791 788 784 780 777 773 768 765 764 762 761
851 864 857 861 855 856 862 859 859 863 873 858 856 848 843 843 846 847 845 842 837 832 828 823 819 814 810 806 802 798 794 793 789 785 781 776 773 770 766 762 759 757 755 753
851 856 862 856 855 859 855 854 853 859 853 863 849 853 845 845 848 846 845 838 832 826 821 817 813 807 804 799 796 792 789 785 782 778 774 769 765 762 758 755 752 749 747 745
859 857 862 858 854 856 857 850 852 852 853 856 852 849 844 847 844 841 839 833 828 822 817 813 807 802 798 794 790 786 782 778 775 770 765 761 757 753 750 747 744 741 740 738
855 857 861 855 860 857 855 847 851 853 853 854 857 845 846 845 841 839 835 830 824 818 813 807 802 798 795 790 786 781 776 771 767 762 757 753 749 746 742 739 736 734 732 730
858 859 861 855 860 863 852 854 853 855 853 848 847 847 846 842 839 836 831 826 821 816 810 803 798 795 790 785 779 774 769 764 758 753 748 744 741 738 734 731 729 727 725 723
854 855 860 862 861 846 855 855 860 865 855 846 848 845 840 837 837 829 825 823 820 815 809 802 796 790 784 778 772 766 761 756 750 744 740 736 734 730 727 725 722 720 718 717
859 858 855 866 862 856 848 851 854 858 858 845 845 842 837 838 834 819 819 819 815 811 806 799 792 785 779 772 766 759 753 748 741 736 733 730 727 724 722 719 716 714 712 710
854 857 852 855 857 846 847 850 854 858 850 840 841 838 835 835 829 821 818 814 810 806 800 793 787 780 773 766 760 753 747 740 735 730 726 723 721 719 716 712 710 708 706 704
845 855 855 862 860 855 844 852 856 840 839 839 837 834 832 829 824 820 816 812 806 798 792 788 781 773 767 760 754 748 741 734 728 724 721 718 717 714 711 708 705 702 700 698
849 843 846 849 840 838 840 836 836 840 838 835 835 831 828 826 821 818 813 808 802 797 790 784 777 769 762 755 749 742 734 728 723 719 717 715 713 710 707 703 699 696 694 693
842 846 842 843 834 836 836 837 837 836 835 832 831 829 826 823 820 816 811 804 799 794 787 780 773 765 758 751 743 737 730 724 720 717 715 713 710 707 704 701 696 692 690 689
834 842 837 837 832 831 830 832 832 831 830 829 827 825 824 822 818 814 808 802 797 791 783 777 770 763 755 748 740 733 726 721 718 716 714 711 708 706 704 701 697 694 692 690
834 829 834 831 824 828 827 827 829 828 826 825 825 822 822 821 816 812 806 801 795 788 781 774 767 760 753 747 739 732 726 721 718 716 714 711 709 706 704 703 701 697 694 692